Starlink 31146

operational
NORAD ID: 58769 Int'l Des: 2024-011 Owner: SPXS Country: US Constellation: starlink
LEOCIRCULAR

About Starlink 31146

Description loading...

Live Position

Loading 3D Globe...

Upcoming Passes

Altitude History

Altitude vs Time

uPlot chart will show altitude changes over time

Two-Line Element Set

1 58769U 24011E 25351.53931605 -.00001919 00000-0 -52673-4 0 9990
2 58769 53.1607 35.1898 0001281 81.0704 279.0442 15.30197593107699
Epoch: Dec 17, 2025 • Age: 23 hours

Current Status

Altitude 494.0 km
Velocity 7.62 km/s
Sub-Earth Point -51.79°S, 50.44°E
Launch Date Jan 14, 2024
Age 1.9 years
Type internet

Technical Details

Classification Payload
Mass 730.00 kg
Dry Mass 700.00 kg
Total Mass 730.00 kg
Length 0.30 m
Diameter 4.10 m
Span 29.00 m
Shape Box + pan
Manufacturer SPXS
Bus Type Starlink V2M
Phase Status In Orbit
Owner/State SPXS/US

Large Constellations

Loading constellations...